Location: Dittelspoint
(48.7198°N, 10.7214°E)
Time: 13:36:20
(UTC+00:00)

Cosmos 2237 Rocket - Pass Details

Date: 09 April 2020
Orbit: 833 x 851 km, 71.0° (Epoch: 02 June)

Event Time Altitude Azimuth Distance (km) Brightness Sun altitude
Rises 23:36:13 0° 335° (NNW) 3,410 6.2 -33.1°
Reaches altitude 10° 23:39:03 10° 348° (NNW) 2,475 5.4 -33.1°
Maximum altitude 23:43:52 28° 46° (NE) 1,558 3.9 -33.0°
Enters shadow 23:45:52 22° 78° (ENE) 1,754 4.0 -32.9°
